QPF
0.00 0.00 0.00 0.00 0.00 0.00 0.00 0.00 0.00 0.00 0.00 0.00 0.00 0.00 0.00 0.00 0.00 0.00 0.00 0.00 0.00 0.00 0.00 0.00 0.00 0.00 0.00 0.00 0.00 0.00 0.00 0.00 0.00 0.00 0.00 0.00 0.00 0.00 0.00 0.00 0.00 0.00 0.00 0.00
0.00 0.00 0.00 0.00 0.00 0.00 0.00 0.00 0.00 0.00 0.00 0.00 0.00 0.00 0.00 0.00 0.00 0.00 0.00 0.00 0.00 0.00 0.00 0.00 0.00 0.00 0.00 0.00 0.00 0.00 0.00 0.00 0.00 0.00 0.00 0.00 0.00 0.00 0.00 0.00 0.00 0.00 0.00 0.00
0.00 0.00 0.00 0.00 0.00 0.00 0.00 0.00 0.00 0.00 0.00 0.00 0.00 0.00 0.00 0.00 0.00 0.00 0.00 0.00 0.00 0.00 0.00 0.00 0.00 0.00 0.00 0.00 0.00 0.00 0.00 0.00 0.00 0.00 0.00 0.00 0.00 0.00 0.00 0.00 0.00 0.00 0.00 0.00
0.00 0.00 0.00 0.00 0.00 0.00 0.00 0.00 0.00 0.00 0.00 0.00 0.00 0.00 0.00 0.00 0.00 0.00 0.00 0.00 0.00 0.00 0.00 0.00 0.00 0.00 0.00 0.00 0.00 0.00 0.00 0.00 0.00 0.00 0.00 0.00 0.00 0.00 0.00 0.00 0.00 0.00 0.00 0.00
0.00 0.00 0.00 0.00 0.00 0.00 0.00 0.00 0.00 0.00 0.00 0.00 0.00 0.00 0.00 0.00 0.00 0.00 0.00 0.00 0.00 0.00 0.00 0.00 0.00 0.00 0.00 0.00 0.00 0.00 0.00 0.00 0.00 0.00 0.00 0.00 0.00 0.00 0.00 0.00 0.00 0.00 0.00 0.00
0.00 0.00 0.00 0.00 0.00 0.00 0.00 0.00 0.00 0.00 0.00 0.00 0.00 0.00 0.00 0.00 0.00 0.00 0.00 0.00 0.00 0.00 0.00 0.00 0.00 0.00 0.00 0.00 0.00 0.00 0.00 0.00 0.00 0.00 0.00 0.00 0.00 0.00 0.00 0.00 0.00 0.00 0.00 0.00
0.00 0.00 0.00 0.00 0.00 0.00 0.00 0.00 0.00 0.00 0.00 0.00 0.00 0.00 0.00 0.00 0.00 0.00 0.00 0.00 0.00 0.00 0.00 0.00 0.00 0.00 0.00 0.00 0.00 0.00 0.00 0.00 0.00 0.00 0.00 0.00 0.00 0.00 0.00 0.00 0.00 0.00 0.00 0.00
0.00 0.00 0.00 0.00 0.00 0.00 0.00 0.00 0.00 0.00 0.00 0.00 0.00 0.00 0.00 0.00 0.00 0.00 0.00 0.00 0.00 0.00 0.00 0.00 0.00 0.00 0.00 0.00 0.00 0.00 0.00 0.00 0.00 0.00 0.00 0.00 0.00 0.00 0.00 0.00 0.00 0.00 0.00 0.00
0.00 0.00 0.00 0.00 0.00 0.00 0.00 0.00 0.00 0.00 0.00 0.00 0.00 0.00 0.00 0.00 0.00 0.00 0.00 0.00 0.00 0.00 0.00 0.00 0.00 0.00 0.00 0.00 0.00 0.00 0.00 0.00 0.00 0.00 0.00 0.00 0.00 0.00 0.00 0.00 0.00 0.00 0.00 0.00
0.00 0.00 0.00 0.00 0.00 0.00 0.00 0.00 0.00 0.00 0.00 0.00 0.00 0.00 0.00 0.00 0.00 0.00 0.00 0.00 0.00 0.00 0.00 0.00 0.00 0.00 0.00 0.00 0.00 0.00 0.00 0.00 0.00 0.00 0.00 0.00 0.00 0.00 0.00 0.00 0.00 0.00 0.00 0.00
0.00 0.00 0.00 0.00 0.00 0.00 0.00 0.00 0.00 0.00 0.00 0.00 0.00 0.00 0.00 0.00 0.00 0.00 0.00 0.00 0.00 0.00 0.00 0.00 0.00 0.00 0.00 0.00 0.00 0.00 0.00 0.00 0.00 0.00 0.00 0.00 0.00 0.00 0.00 0.00 0.00 0.00 0.00 0.00
0.01 0.00 0.00 0.00 0.00 0.00 0.00 0.00 0.00 0.00 0.00 0.00 0.00 0.00 0.00 0.00 0.00 0.00 0.00 0.00 0.00 0.00 0.00 0.00 0.00 0.00 0.00 0.00 0.00 0.00 0.00 0.00 0.00 0.00 0.00 0.00 0.00 0.00 0.00 0.00 0.00 0.01 0.01 0.01
0.00 0.00 0.00 0.00 0.00 0.00 0.00 0.00 0.00 0.00 0.00 0.00 0.00 0.00 0.00 0.00 0.00 0.00 0.00 0.00 0.00 0.00 0.00 0.00 0.00 0.00 0.00 0.00 0.00 0.00 0.00 0.00 0.00 0.00 0.00 0.00 0.00 0.00 0.00 0.00 0.00 0.00 0.00 0.01
0.00 0.00 0.00 0.00 0.00 0.00 0.00 0.00 0.00 0.00 0.00 0.00 0.00 0.00 0.00 0.00 0.00 0.00 0.00 0.00 0.00 0.00 0.00 0.00 0.00 0.00 0.00 0.00 0.00 0.00 0.00 0.00 0.00 0.00 0.00 0.00 0.00 0.00 0.00 0.00 0.00 0.00 0.00 0.00
0.00 0.00 0.00 0.00 0.00 0.00 0.00 0.00 0.00 0.00 0.00 0.00 0.00 0.00 0.00 0.00 0.00 0.00 0.00 0.00 0.00 0.00 0.00 0.00 0.00 0.00 0.00 0.00 0.00 0.00 0.00 0.00 0.00 0.00 0.00 0.00 0.00 0.00 0.00 0.00 0.00 0.00 0.00 0.00
0.00 0.00 0.00 0.00 0.00 0.00 0.00 0.00 0.00 0.00 0.00 0.00 0.00 0.00 0.00 0.00 0.00 0.00 0.00 0.00 0.00 0.00 0.00 0.00 0.00 0.00 0.00 0.00 0.00 0.00 0.00 0.00 0.00 0.00 0.00 0.00 0.00 0.00 0.00 0.00 0.00 0.00 0.00 0.00
0.00 0.00 0.00 0.00 0.00 0.00 0.00 0.00 0.00 0.00 0.00 0.00 0.00 0.00 0.00 0.00 0.00 0.00 0.00 0.00 0.00 0.00 0.00 0.00 0.00 0.00 0.00 0.00 0.00 0.00 0.00 0.00 0.00 0.00 0.00 0.00 0.00 0.00 0.00 0.00 0.00 0.00 0.00 0.00
0.00 0.00 0.00 0.00 0.00 0.00 0.00 0.00 0.00 0.00 0.00 0.00 0.00 0.00 0.00 0.00 0.00 0.00 0.00 0.00 0.00 0.00 0.00 0.00 0.00 0.00 0.00 0.00 0.00 0.00 0.00 0.00 0.00 0.00 0.00 0.00 0.00 0.00 0.00 0.00 0.00 0.00 0.00 0.00
0.00 0.00 0.00 0.00 0.00 0.00 0.00 0.00 0.00 0.00 0.00 0.00 0.00 0.00 0.00 0.00 0.00 0.00 0.00 0.00 0.00 0.00 0.00 0.00 0.00 0.00 0.00 0.00 0.00 0.00 0.00 0.00 0.00 0.00 0.00 0.00 0.00 0.00 0.00 0.00 0.00 0.00 0.00 0.00
0.00 0.00 0.00 0.00 0.00 0.00 0.00 0.00 0.00 0.00 0.00 0.00 0.00 0.00 0.00 0.00 0.00 0.00 0.00 0.00 0.00 0.00 0.00 0.00 0.00 0.00 0.00 0.00 0.00 0.00 0.00 0.00 0.00 0.00 0.00 0.00 0.00 0.00 0.00 0.00 0.00 0.00 0.00 0.00
0.00 0.00 0.00 0.00 0.00 0.00 0.00 0.00 0.00 0.00 0.00 0.00 0.00 0.00 0.00 0.00 0.00 0.00 0.00 0.00 0.00 0.00 0.00 0.00 0.00 0.00 0.00 0.00 0.00 0.00 0.00 0.00 0.00 0.00 0.00 0.00 0.00 0.00 0.00 0.00 0.00 0.00 0.00 0.00
0.00 0.00 0.00 0.00 0.00 0.00 0.00 0.00 0.00 0.00 0.00 0.00 0.00 0.00 0.00 0.00 0.00 0.00 0.00 0.00 0.00 0.00 0.00 0.00 0.00 0.00 0.01 0.01 0.00 0.00 0.00 0.00 0.00 0.00 0.00 0.00 0.00 0.00 0.00 0.00 0.00 0.00 0.00 0.00
0.00 0.00 0.00 0.00 0.00 0.00 0.00 0.00 0.00 0.00 0.00 0.00 0.00 0.00 0.00 0.00 0.00 0.00 0.00 0.00 0.00 0.00 0.00 0.00 0.00 0.00 0.01 0.00 0.00 0.00 0.00 0.00 0.00 0.00 0.00 0.00 0.00 0.00 0.00 0.00 0.00 0.00 0.00 0.00
0.00 0.00 0.00 0.00 0.00 0.00 0.00 0.00 0.00 0.00 0.00 0.00 0.00 0.00 0.00 0.00 0.00 0.00 0.00 0.00 0.00 0.00 0.00 0.00 0.00 0.01 0.00 0.00 0.00 0.00 0.00 0.00 0.00 0.00 0.00 0.00 0.00 0.00 0.00 0.00 0.00 0.00 0.00 0.00
0.00 0.00 0.00 0.00 0.00 0.00 0.00 0.00 0.00 0.00 0.00 0.00 0.00 0.00 0.00 0.00 0.00 0.00 0.00 0.00 0.00 0.00 0.00 0.00 0.00 0.00 0.00 0.00 0.00 0.00 0.00 0.00 0.00 0.00 0.00 0.00 0.00 0.00 0.00 0.00 0.00 0.00 0.00 0.00
0.00 0.00 0.00 0.00 0.00 0.00 0.00 0.00 0.00 0.00 0.00 0.00 0.00 0.00 0.00 0.00 0.00 0.00 0.00 0.00 0.00 0.00 0.00 0.00 0.00 0.00 0.00 0.00 0.00 0.00 0.00 0.00 0.00 0.00 0.00 0.00 0.00 0.00 0.00 0.00 0.00 0.00 0.00 0.00
0.00 0.00 0.00 0.00 0.00 0.00 0.00 0.00 0.00 0.00 0.00 0.00 0.00 0.00 0.00 0.00 0.00 0.00 0.00 0.00 0.00 0.00 0.00 0.00 0.00 0.00 0.00 0.00 0.00 0.00 0.00 0.00 0.00 0.00 0.00 0.00 0.00 0.00 0.00 0.00 0.00 0.00 0.00 0.00
MSLP
1021.95 1021.40 1021.77 1022.20 1022.53 1022.55 1022.13 1020.11 1019.92 1016.74 1017.78 1016.90 1018.11 1018.99 1019.32 1019.72 1019.67 1019.69 1019.94 1020.27 1020.46 1020.59 1020.43 1020.37 1020.38 1020.41 1020.35 1020.16 1020.02 1019.89 1019.71 1019.47 1019.13 1018.74 1018.48 1018.21 1017.94 1017.62 1017.37 1017.18 1016.94 1016.75 1016.53 1016.27
1021.93 1021.32 1021.24 1021.28 1021.15 1020.54 1020.27 1019.82 1019.56 1018.80 1018.48 1018.21 1018.44 1019.26 1019.91 1020.32 1020.58 1020.60 1020.41 1020.64 1020.97 1021.00 1020.77 1020.64 1020.62 1020.48 1020.20 1019.85 1019.55 1019.38 1019.13 1018.78 1018.37 1018.04 1017.68 1017.34 1017.04 1016.78 1016.53 1016.27 1016.03 1015.85 1015.57 1015.30
1021.05 1021.05 1020.74 1020.17 1019.00 1019.08 1019.22 1019.38 1019.17 1018.99 1018.10 1018.72 1019.31 1019.66 1019.98 1020.54 1021.01 1021.11 1020.91 1020.99 1021.06 1021.23 1021.06 1020.67 1020.39 1020.21 1019.90 1019.49 1019.17 1018.94 1018.52 1017.94 1017.59 1017.31 1016.94 1016.63 1016.34 1016.08 1015.78 1015.32 1015.01 1014.65 1014.36 1014.18
1021.57 1021.13 1019.38 1017.74 1018.13 1018.58 1018.83 1018.71 1019.04 1018.69 1018.74 1019.80 1020.03 1020.21 1020.57 1020.39 1020.43 1021.26 1020.98 1020.87 1020.88 1020.85 1020.61 1020.33 1020.07 1019.82 1019.45 1019.13 1018.79 1018.33 1017.73 1017.22 1016.97 1016.69 1016.26 1015.92 1015.61 1015.24 1014.75 1014.35 1013.93 1013.60 1013.30 1013.13
1022.12 1020.21 1017.47 1017.55 1018.05 1018.92 1019.35 1018.61 1018.28 1018.92 1019.67 1019.63 1020.10 1020.38 1020.28 1020.52 1020.53 1020.72 1021.01 1021.06 1020.98 1020.78 1020.50 1020.21 1019.97 1019.47 1019.08 1018.67 1018.17 1017.64 1017.03 1016.56 1016.26 1015.98 1015.57 1015.27 1014.85 1014.43 1013.93 1013.54 1013.18 1012.81 1012.48 1012.17
1021.69 1020.12 1017.91 1017.55 1018.79 1019.53 1019.77 1019.30 1019.55 1019.91 1020.13 1020.30 1020.10 1020.04 1020.00 1020.32 1020.52 1020.70 1020.77 1020.69 1020.45 1020.10 1020.05 1019.72 1019.19 1018.97 1018.65 1018.06 1017.60 1016.95 1016.31 1015.87 1015.65 1015.52 1015.18 1014.68 1014.22 1013.73 1013.23 1012.94 1012.47 1012.15 1011.65 1011.38
1021.58 1020.05 1018.60 1019.10 1019.63 1020.23 1020.36 1020.67 1020.43 1020.47 1020.18 1020.16 1020.08 1019.96 1020.25 1020.22 1020.16 1020.25 1020.18 1019.87 1019.73 1019.61 1019.39 1018.95 1018.68 1018.61 1018.11 1017.53 1016.97 1016.38 1015.83 1015.34 1015.06 1014.89 1014.41 1014.01 1013.52 1013.14 1012.74 1012.35 1011.95 1011.53 1011.07 1010.66
1021.28 1020.09 1019.34 1019.38 1020.04 1020.73 1020.87 1020.59 1020.73 1020.37 1020.00 1020.14 1020.23 1020.30 1019.91 1019.62 1019.64 1019.69 1019.70 1019.59 1019.47 1019.40 1018.87 1018.37 1018.29 1018.14 1017.64 1017.07 1016.41 1015.86 1015.16 1014.66 1014.36 1014.00 1013.69 1013.39 1013.01 1012.54 1012.13 1011.72 1011.30 1010.79 1010.22 1009.72
1020.88 1019.05 1018.87 1019.63 1020.15 1020.41 1020.92 1020.83 1020.47 1020.43 1020.68 1020.73 1020.44 1019.84 1019.53 1019.49 1019.42 1019.63 1019.69 1019.56 1019.30 1019.17 1018.48 1017.86 1017.87 1017.55 1017.03 1016.30 1015.74 1015.02 1014.52 1014.08 1013.71 1013.43 1013.19 1012.92 1012.48 1011.91 1011.47 1011.02 1010.49 1009.90 1009.36 1008.85
1020.52 1019.13 1019.40 1020.01 1020.55 1020.80 1020.87 1020.87 1021.18 1021.17 1021.01 1020.75 1020.66 1020.34 1019.84 1019.65 1019.52 1019.45 1019.41 1019.39 1019.10 1018.74 1018.21 1017.47 1017.19 1016.87 1016.37 1015.84 1015.31 1014.64 1014.05 1013.55 1013.26 1012.98 1012.61 1012.23 1011.77 1011.31 1010.75 1010.20 1009.67 1009.14 1008.58 1008.02
1020.01 1019.74 1020.54 1020.67 1020.83 1021.01 1021.23 1021.17 1021.01 1020.84 1020.84 1020.80 1020.61 1020.18 1019.99 1019.75 1019.70 1019.59 1019.42 1019.08 1018.87 1018.49 1017.86 1017.31 1016.89 1016.35 1016.01 1015.45 1014.91 1014.27 1013.75 1013.22 1012.84 1012.52 1012.15 1011.75 1011.23 1010.75 1010.21 1009.61 1009.11 1008.45 1007.74 1007.19
1020.75 1021.16 1021.37 1021.34 1021.25 1021.25 1021.15 1020.98 1021.12 1021.07 1020.73 1020.71 1020.80 1020.54 1020.36 1020.19 1020.07 1019.88 1019.47 1019.02 1018.62 1018.28 1017.89 1017.26 1016.87 1016.27 1015.73 1015.28 1014.84 1014.18 1013.44 1012.87 1012.47 1012.03 1011.61 1011.13 1010.56 1009.80 1009.19 1008.63 1008.06 1007.45 1006.79 1006.27
1021.80 1021.79 1021.72 1021.37 1021.07 1021.54 1021.71 1021.46 1021.39 1021.32 1021.36 1021.27 1021.32 1021.30 1021.05 1020.67 1020.36 1019.94 1019.77 1019.30 1018.82 1018.22 1017.82 1017.34 1016.77 1016.11 1015.47 1014.95 1014.48 1013.82 1013.29 1012.75 1012.17 1011.56 1011.09 1010.52 1009.87 1009.23 1008.34 1007.39 1007.01 1006.47 1005.94 1005.38
1022.41 1022.34 1021.99 1021.67 1021.67 1021.74 1021.94 1021.83 1021.81 1021.82 1021.93 1021.96 1021.86 1021.67 1021.43 1021.18 1020.70 1020.29 1019.67 1019.24 1018.78 1018.30 1017.63 1017.09 1016.47 1015.79 1015.07 1014.48 1013.93 1013.44 1012.95 1012.31 1011.72 1011.18 1010.67 1010.04 1009.33 1008.68 1008.00 1007.11 1006.19 1005.54 1005.12 1004.67
1022.70 1022.67 1022.61 1022.39 1022.16 1022.00 1022.28 1022.14 1021.93 1021.99 1022.08 1022.14 1022.08 1021.90 1021.73 1021.40 1020.77 1020.26 1019.69 1019.16 1018.62 1017.94 1017.25 1016.70 1016.06 1015.23 1014.52 1014.01 1013.40 1012.88 1012.39 1011.83 1011.23 1010.59 1009.93 1009.30 1008.76 1008.19 1007.53 1006.85 1006.12 1005.33 1004.61 1003.88
1022.95 1022.83 1022.71 1022.69 1022.49 1022.47 1022.68 1022.60 1022.77 1022.62 1022.47 1022.42 1022.42 1022.23 1021.93 1021.35 1020.67 1020.09 1019.54 1018.99 1018.31 1017.41 1016.92 1016.32 1015.62 1014.73 1014.09 1013.48 1012.84 1012.29 1011.85 1011.30 1010.69 1010.08 1009.51 1009.04 1008.52 1007.86 1007.19 1006.55 1005.83 1005.06 1004.33 1003.65
1023.80 1023.17 1022.80 1022.75 1022.89 1022.90 1023.34 1023.44 1023.48 1023.26 1022.99 1022.88 1022.58 1022.25 1021.71 1021.10 1020.40 1019.71 1019.09 1018.62 1017.99 1017.11 1016.44 1015.85 1015.04 1014.16 1013.43 1012.87 1012.43 1011.85 1011.33 1010.87 1010.35 1010.08 1009.52 1009.00 1008.35 1007.73 1007.05 1006.31 1005.53 1004.82 1004.16 1003.56
1023.76 1023.25 1023.44 1023.57 1023.37 1023.31 1023.33 1023.45 1023.52 1023.38 1023.28 1023.01 1022.61 1022.14 1021.53 1020.87 1020.19 1019.50 1018.83 1018.18 1017.43 1016.50 1015.73 1015.14 1014.50 1013.59 1012.65 1012.42 1011.97 1011.25 1010.83 1010.72 1010.39 1010.00 1009.51 1008.87 1008.24 1007.45 1006.79 1006.07 1005.32 1004.59 1003.84 1003.17
1023.51 1023.54 1023.42 1023.47 1023.44 1023.53 1023.54 1023.48 1023.51 1023.32 1023.15 1022.86 1022.38 1021.79 1021.16 1020.49 1019.87 1019.22 1018.49 1017.68 1016.96 1016.07 1015.00 1014.55 1013.72 1012.86 1012.39 1011.90 1011.35 1010.84 1010.83 1010.60 1010.27 1009.87 1009.41 1008.77 1007.99 1007.21 1006.61 1005.87 1005.09 1004.37 1003.66 1002.88
1023.75 1023.58 1023.56 1023.57 1023.54 1023.54 1023.40 1023.29 1023.22 1022.91 1022.64 1022.37 1021.86 1021.26 1020.51 1019.85 1019.28 1018.70 1018.08 1017.09 1016.41 1015.80 1015.01 1014.08 1013.09 1012.41 1011.98 1011.47 1010.96 1010.97 1010.77 1010.51 1010.16 1009.75 1009.30 1008.50 1007.91 1007.12 1006.38 1005.65 1004.88 1004.09 1003.31 1002.58
1023.94 1023.80 1023.70 1023.80 1023.79 1023.61 1023.37 1023.18 1022.96 1022.58 1022.21 1021.87 1021.43 1020.87 1020.22 1019.44 1018.76 1018.10 1017.34 1016.44 1015.35 1015.05 1014.18 1013.39 1012.63 1012.09 1011.45 1010.84 1011.03 1010.85 1010.60 1010.34 1009.99 1009.62 1009.17 1008.60 1007.87 1007.04 1006.19 1005.37 1004.57 1003.82 1003.04 1002.36
1024.52 1024.38 1024.25 1024.12 1023.87 1023.59 1023.36 1023.18 1022.84 1022.37 1021.92 1021.50 1020.99 1020.53 1019.92 1019.00 1018.24 1017.44 1016.83 1016.12 1015.08 1014.51 1013.75 1012.90 1012.20 1011.75 1010.93 1010.72 1010.78 1010.63 1010.43 1010.15 1009.80 1009.42 1008.92 1008.37 1007.69 1006.86 1005.94 1005.12 1004.35 1003.59 1002.82 1002.02
1025.07 1024.94 1024.67 1024.36 1024.14 1023.80 1023.38 1022.97 1022.67 1022.33 1021.78 1021.25 1020.69 1020.13 1019.67 1018.91 1018.15 1017.24 1016.01 1015.35 1014.83 1014.04 1013.22 1012.56 1011.78 1011.09 1010.56 1010.68 1010.65 1010.48 1010.21 1009.88 1009.52 1009.15 1008.67 1008.11 1007.43 1006.55 1005.79 1004.82 1004.02 1003.27 1002.50 1001.66
1025.58 1025.23 1024.90 1024.63 1024.31 1023.82 1023.29 1022.88 1022.63 1022.22 1021.68 1021.00 1020.28 1019.75 1019.25 1018.40 1017.54 1016.92 1016.13 1015.32 1014.40 1013.71 1012.81 1012.25 1011.41 1010.82 1010.38 1010.56 1010.44 1010.21 1009.87 1009.55 1009.23 1008.83 1008.29 1007.57 1007.01 1006.29 1005.43 1004.63 1003.80 1002.95 1002.17 1001.27
1026.24 1025.74 1025.15 1024.64 1024.14 1023.81 1023.57 1023.21 1022.76 1021.94 1021.34 1020.73 1019.98 1019.38 1018.91 1018.42 1017.73 1016.39 1015.64 1014.99 1014.20 1013.34 1012.60 1011.89 1011.21 1010.82 1010.63 1010.37 1010.17 1009.89 1009.52 1009.19 1008.88 1008.39 1007.96 1007.47 1006.77 1005.95 1005.18 1004.37 1003.53 1002.67 1001.74 1000.94
1026.71 1026.17 1025.73 1025.17 1024.83 1024.33 1023.82 1023.32 1022.54 1022.00 1021.37 1020.53 1019.84 1019.24 1018.54 1017.66 1017.01 1016.31 1015.52 1014.68 1013.86 1013.05 1012.42 1011.76 1011.16 1010.62 1010.29 1010.08 1009.77 1009.48 1009.22 1008.81 1008.45 1008.14 1007.60 1007.05 1006.34 1005.64 1004.86 1004.05 1003.24 1002.28 1001.31 1000.34
1026.97 1026.55 1025.87 1025.61 1025.18 1024.79 1024.27 1023.44 1022.79 1022.20 1021.53 1020.99 1020.10 1019.02 1018.14 1017.45 1016.84 1016.02 1015.18 1014.42 1013.67 1012.89 1012.15 1011.38 1010.76 1010.37 1009.97 1009.68 1009.43 1009.23 1008.92 1008.50 1008.07 1007.70 1007.18 1006.70 1006.02 1005.22 1004.47 1003.70 1002.86 1001.96 1000.91 999.79
Thickness
5542 5548 5533 5517 5512 5505 5477 5513 5505 5544 5522 5529 5504 5483 5477 5459 5453 5449 5442 5431 5422 5413 5410 5405 5397 5390 5384 5378 5370 5363 5357 5351 5346 5344 5341 5339 5336 5335 5334 5331 5330 5330 5330 5329
5498 5512 5500 5491 5500 5502 5500 5498 5489 5490 5493 5490 5471 5448 5448 5440 5428 5423 5418 5411 5400 5393 5391 5384 5376 5370 5365 5359 5352 5346 5341 5336 5334 5331 5329 5327 5324 5321 5317 5314 5311 5310 5307 5307
5512 5489 5481 5487 5492 5499 5483 5458 5477 5472 5487 5446 5448 5443 5436 5422 5409 5403 5398 5389 5381 5373 5366 5360 5353 5348 5343 5341 5336 5331 5329 5327 5322 5318 5315 5311 5307 5302 5297 5294 5291 5289 5286 5282
5480 5468 5502 5504 5463 5463 5469 5464 5440 5449 5442 5420 5420 5411 5399 5396 5389 5382 5377 5370 5362 5355 5348 5342 5336 5332 5330 5326 5322 5319 5316 5313 5307 5302 5298 5293 5286 5280 5276 5271 5269 5265 5262 5259
5466 5487 5514 5506 5473 5449 5443 5471 5442 5433 5419 5415 5399 5387 5393 5379 5369 5363 5353 5345 5339 5333 5329 5324 5317 5317 5314 5311 5307 5303 5300 5297 5290 5281 5276 5270 5264 5258 5253 5249 5246 5243 5242 5241
5434 5447 5480 5486 5442 5422 5416 5447 5414 5399 5398 5389 5378 5391 5380 5359 5348 5340 5331 5325 5322 5320 5314 5309 5308 5302 5297 5294 5290 5284 5282 5277 5269 5259 5251 5246 5242 5238 5235 5231 5230 5228 5228 5227
5423 5427 5450 5421 5409 5395 5411 5408 5375 5368 5372 5370 5364 5362 5347 5341 5334 5325 5320 5317 5312 5309 5305 5299 5292 5282 5279 5275 5269 5266 5261 5256 5248 5239 5234 5230 5227 5223 5220 5218 5216 5215 5214 5212
5403 5402 5408 5398 5389 5383 5374 5369 5363 5363 5357 5349 5340 5333 5332 5329 5322 5316 5310 5305 5298 5292 5292 5288 5277 5266 5263 5257 5253 5248 5244 5239 5233 5227 5221 5217 5214 5213 5210 5208 5206 5205 5203 5200
5400 5422 5404 5382 5374 5367 5352 5349 5350 5342 5333 5325 5324 5326 5326 5319 5309 5302 5295 5289 5283 5276 5276 5275 5261 5252 5246 5243 5239 5236 5232 5227 5221 5216 5210 5206 5204 5203 5202 5199 5199 5197 5196 5193
5371 5400 5380 5362 5349 5345 5341 5334 5325 5319 5315 5313 5309 5307 5308 5304 5297 5290 5283 5273 5269 5263 5259 5257 5248 5240 5234 5229 5225 5222 5219 5216 5210 5205 5202 5199 5197 5195 5194 5193 5191 5189 5189 5188
5371 5371 5347 5343 5336 5330 5320 5313 5313 5311 5305 5298 5296 5295 5292 5289 5281 5273 5266 5260 5252 5245 5242 5238 5233 5230 5222 5216 5212 5211 5208 5205 5201 5197 5193 5191 5189 5186 5184 5184 5182 5182 5184 5184
5348 5335 5324 5322 5321 5314 5309 5308 5301 5295 5294 5288 5277 5276 5273 5268 5260 5253 5247 5244 5238 5232 5226 5223 5218 5214 5209 5204 5199 5198 5197 5195 5192 5189 5185 5183 5182 5182 5180 5180 5179 5179 5181 5182
5323 5312 5310 5312 5310 5297 5290 5287 5281 5276 5269 5266 5261 5254 5251 5248 5244 5240 5231 5227 5222 5219 5213 5208 5206 5202 5199 5195 5191 5189 5186 5184 5182 5180 5177 5175 5175 5175 5178 5179 5177 5178 5180 5182
5304 5296 5302 5298 5293 5282 5274 5270 5264 5259 5251 5246 5242 5239 5234 5230 5228 5225 5222 5217 5211 5206 5202 5199 5197 5193 5192 5189 5186 5182 5178 5176 5174 5172 5170 5170 5172 5172 5173 5176 5180 5180 5181 5183
5291 5282 5278 5276 5272 5270 5258 5255 5254 5248 5241 5235 5230 5225 5221 5219 5218 5215 5211 5206 5201 5197 5195 5193 5190 5189 5188 5185 5182 5177 5173 5171 5170 5170 5171 5171 5171 5171 5172 5174 5176 5179 5183 5187
5273 5269 5268 5263 5260 5256 5245 5243 5238 5234 5230 5226 5221 5217 5213 5211 5210 5207 5202 5196 5194 5195 5190 5187 5185 5185 5184 5182 5179 5175 5171 5171 5171 5171 5170 5169 5169 5170 5171 5173 5175 5180 5183 5188
5261 5271 5271 5267 5255 5243 5231 5224 5219 5217 5216 5214 5212 5208 5205 5204 5205 5202 5197 5190 5188 5187 5186 5183 5183 5183 5182 5180 5175 5173 5171 5169 5170 5165 5166 5166 5167 5167 5169 5172 5176 5179 5183 5188
5250 5252 5242 5237 5236 5232 5228 5221 5215 5211 5207 5206 5202 5199 5198 5197 5194 5192 5188 5186 5186 5186 5185 5182 5180 5181 5183 5178 5174 5173 5172 5167 5164 5163 5163 5164 5164 5167 5169 5172 5177 5181 5186 5191
5239 5238 5234 5227 5223 5220 5217 5215 5209 5203 5199 5197 5196 5195 5193 5190 5188 5185 5183 5182 5182 5184 5184 5180 5180 5182 5179 5176 5175 5173 5168 5165 5163 5162 5161 5162 5164 5168 5169 5174 5178 5183 5187 5193
5233 5226 5220 5217 5215 5213 5211 5206 5202 5201 5197 5194 5193 5193 5192 5188 5185 5181 5179 5179 5179 5179 5178 5178 5180 5180 5178 5175 5174 5169 5166 5163 5161 5160 5159 5163 5163 5167 5171 5175 5179 5184 5190 5196
5223 5218 5216 5211 5206 5203 5201 5198 5196 5195 5192 5189 5187 5186 5184 5183 5181 5179 5177 5180 5181 5178 5178 5178 5178 5177 5177 5177 5169 5166 5164 5162 5161 5159 5158 5158 5161 5166 5171 5176 5181 5186 5191 5196
5207 5204 5201 5197 5194 5192 5189 5186 5185 5185 5184 5182 5180 5179 5178 5178 5177 5177 5172 5173 5177 5176 5176 5176 5176 5175 5177 5173 5168 5165 5163 5161 5159 5158 5158 5158 5161 5166 5172 5177 5181 5186 5191 5197
5189 5185 5184 5182 5180 5178 5176 5175 5174 5172 5173 5173 5171 5171 5170 5170 5167 5169 5175 5173 5171 5173 5175 5174 5175 5176 5176 5169 5165 5162 5161 5160 5159 5157 5157 5158 5160 5166 5170 5177 5182 5187 5192 5198
5169 5168 5167 5166 5164 5164 5164 5162 5159 5159 5160 5162 5163 5162 5162 5165 5165 5162 5164 5165 5168 5169 5172 5171 5173 5173 5173 5166 5163 5161 5161 5160 5159 5157 5158 5162 5161 5164 5170 5175 5180 5185 5191 5198
5148 5149 5150 5149 5150 5148 5145 5145 5144 5148 5150 5150 5152 5153 5152 5151 5154 5160 5161 5161 5162 5166 5167 5169 5169 5168 5166 5164 5161 5160 5160 5160 5159 5158 5158 5157 5160 5164 5167 5172 5177 5183 5191 5196
5127 5128 5127 5127 5126 5126 5127 5128 5133 5133 5135 5139 5140 5141 5144 5148 5149 5150 5153 5156 5158 5161 5162 5164 5164 5164 5164 5162 5161 5160 5159 5159 5159 5158 5158 5159 5161 5163 5166 5170 5175 5182 5189 5197
5109 5109 5111 5107 5105 5104 5105 5109 5112 5113 5116 5118 5124 5131 5136 5138 5140 5143 5147 5150 5152 5154 5157 5160 5162 5161 5161 5161 5160 5158 5157 5159 5160 5160 5160 5160 5162 5165 5166 5169 5173 5178 5187 5196